[[{"header":{"parameterUnit":"m.s-1","parameterCategory":2,"la1":30.2991,"la2":30.254,"lo1":-89.0895,"lo2":-89.0444,"dy":0.0017,"dx":0.0017,"nx":28,"ny":28,"refTime":"2025-12-14T03:00:00:Z","depth":"0","parameterNumber":2,"parameterNumberName":"U-component_of_CURRENTS"},"data":[0,0,0,0,0,0,0,0,0,0,0,0,0,0,0,0,0,0,0,0,0,0,0,0,0,0,0,0,0,0,0,0,0,0,0,0,0,0,0,0,0,0,0,0,0,0,0,0,0,0,0,0,0,0,0,0,0,0,-0.2131,-0.2131,0,-0.2102,-0.2101,-0.2101,-0.2066,-0.2066,-0.2066,-0.2065,-0.2064,-0.2064,-0.2064,0,0,0,0,0,0,0,0,0,0,0,0,0,-0.2071,-0.2072,-0.2131,-0.2131,-0.213,-0.2102,-0.2101,-0.2101,-0.2066,-0.2066,-0.2065,-0.2065,-0.2064,-0.2064,-0.2064,0,0,0,0,0,0,0,0,0,0,0,0,0,-0.2072,-0.2073,-0.2131,-0.2112,-0.2111,-0.2102,-0.2101,-0.21,-0.2066,-0.2066,-0.2065,-0.2065,-0.2063,-0.2064,-0.2064,-0.2072,0,0,-0.2065,-0.2065,0,0,0,0,0,0,0,0,-0.2072,-0.2074,-0.2115,-0.2114,-0.2112,-0.209,-0.208,-0.2093,-0.2066,-0.2079,-0.2065,-0.2065,-0.2078,-0.2077,-0.2066,-0.2072,-0.2072,-0.2065,-0.2065,-0.2065,-0.2065,0,0,0,0,0,0,0,-0.2072,-0.2074,-0.2116,-0.2115,-0.2113,-0.2077,-0.2077,-0.2081,-0.2078,-0.2078,-0.2076,-0.2079,-0.2076,-0.2066,-0.2066,-0.2072,-0.2065,-0.2065,-0.2065,-0.2065,-0.2096,-0.2097,0,0,0,0,0,0,-0.2088,-0.2075,-0.2117,-0.2115,-0.2095,-0.2079,-0.2079,-0.2095,-0.2078,-0.2076,-0.2079,-0.2078,-0.2066,-0.2066,-0.2066,-0.2067,-0.2065,-0.2065,-0.2065,-0.2096,-0.2097,-0.2097,0,0,0,0,0,0,-0.2087,-0.2092,-0.2118,-0.2096,-0.2097,-0.2081,-0.2099,-0.2094,-0.2092,-0.2079,-0.2076,-0.2082,-0.2066,-0.2066,-0.2059,-0.2067,-0.2065,-0.2065,-0.2095,-0.2096,-0.2097,-0.2073,0,0,0,0,0,0,-0.2086,-0.2093,-0.2102,-0.2098,-0.2099,-0.2108,-0.2099,-0.2094,-0.2095,-0.2093,-0.2081,-0.208,-0.2066,-0.2058,-0.2059,-0.2067,-0.2066,-0.2094,-0.2095,-0.2097,-0.2073,-0.2073,-0.2074,0,0,0,0,0,-0.2084,-0.2095,-0.2103,-0.2108,-0.2116,-0.2109,-0.2105,-0.209,-0.2096,-0.2088,-0.2077,-0.208,-0.2068,-0.2058,-0.2059,-0.2068,-0.2093,-0.2095,-0.2097,-0.2073,-0.2073,-0.2074,0,0,0,0,0,0,-0.2075,-0.2094,-0.2102,-0.212,-0.2116,-0.2104,-0.2102,-0.2099,-0.2085,-0.2089,-0.2077,-0.2074,-0.2075,-0.208,-0.207,-0.2084,-0.2087,-0.2089,-0.207,-0.207,-0.207,-0.208,-0.2066,0,0,0,0,0,-0.2081,-0.2085,-0.2104,-0.2109,-0.2123,-0.2119,-0.2115,-0.2108,-0.21,-0.2093,-0.2076,-0.2076,-0.2082,-0.2081,-0.2079,-0.2083,-0.2094,-0.2096,-0.2096,-0.2096,-0.2107,-0.2127,-0.213,-0.2103,-0.2102,-0.2102,0,0,-0.2071,-0.2085,-0.2084,-0.2105,-0.2109,-0.2108,-0.2115,-0.2116,-0.2101,-0.2098,-0.2067,-0.2073,-0.2084,-0.2078,-0.2082,-0.2082,-0.2106,-0.2098,-0.2097,-0.2109,-0.2129,-0.2132,-0.2134,-0.2104,-0.2103,-0.2103,0,0,-0.2046,-0.2083,-0.2079,-0.2086,-0.2101,-0.2102,-0.211,-0.2105,-0.2096,-0.2071,-0.2077,-0.2089,-0.2069,-0.2084,-0.2093,-0.2102,-0.2106,-0.2105,-0.2111,-0.213,-0.2132,-0.2134,-0.2131,-0.2133,-0.2105,-0.2105,-0.2105,0,-0.2036,-0.204,-0.2071,-0.2076,-0.2077,-0.2105,-0.2099,-0.2097,-0.2074,-0.2077,-0.2057,-0.2068,-0.2076,-0.2105,-0.2102,-0.2103,-0.2103,-0.2102,-0.2128,-0.2131,-0.2134,-0.213,-0.2133,-0.2104,-0.2104,-0.2104,-0.2104,0,-0.2006,-0.2015,-0.202,-0.2033,-0.2039,-0.204,-0.2059,-0.2055,-0.2051,-0.2049,-0.2062,-0.2065,-0.2078,-0.2087,-0.2091,-0.2128,-0.2116,-0.2123,-0.2123,-0.2134,-0.2131,-0.2134,-0.2103,-0.2103,-0.2103,-0.2103,0,0,-0.1958,-0.1993,-0.199,-0.1993,-0.2021,-0.2021,-0.2024,-0.2036,-0.205,-0.2033,-0.2038,-0.2061,-0.2084,-0.2098,-0.2119,-0.2139,-0.215,-0.2135,-0.2136,-0.2123,-0.2169,-0.2167,-0.217,-0.2151,-0.2152,-0.2153,-0.2151,0,-0.1921,-0.1919,-0.1943,-0.1928,-0.1935,-0.1972,-0.1975,-0.1994,-0.2004,-0.2013,-0.2055,-0.207,-0.2084,-0.2097,-0.212,-0.2155,-0.216,-0.2149,-0.2169,-0.217,-0.216,-0.2176,-0.2194,-0.2195,-0.2154,-0.2155,-0.2155,0,-0.1873,-0.1881,-0.1872,-0.1894,-0.1906,-0.1898,-0.1929,-0.1938,-0.1989,-0.2,-0.2037,-0.2067,-0.212,-0.2114,-0.2172,-0.2159,-0.2162,-0.2176,-0.2176,-0.219,-0.2175,-0.2183,-0.2202,-0.2199,-0.216,-0.216,-0.2159,0,-0.1813,-0.1823,-0.1815,-0.1821,-0.1859,-0.1859,-0.1879,-0.1929,-0.1953,-0.2001,-0.2023,-0.208,-0.2111,-0.2137,-0.2173,-0.2171,-0.2213,-0.2215,-0.2209,-0.2208,-0.2239,-0.2239,-0.2257,-0.2234,-0.2234,-0.2234,-0.2234,0,-0.1762,-0.1748,-0.1785,-0.1784,-0.178,-0.1822,-0.1833,-0.1868,-0.1924,-0.1963,-0.2021,-0.2057,-0.2118,-0.2152,-0.217,-0.2204,-0.2211,-0.2218,-0.2216,-0.2229,-0.2229,-0.2241,-0.2251,-0.2234,-0.2234,-0.2234,-0.2234,0,-0.1692,-0.172,-0.1713,-0.1747,-0.1753,-0.1753,-0.1799,-0.181,-0.1885,-0.1932,-0.1952,-0.2044,-0.2111,-0.2153,-0.22,-0.2207,-0.2215,-0.2228,-0.2229,-0.2228,-0.2237,-0.2244,-0.2216,-0.2146,-0.224,-0.224,-0.224,0,-0.1658,-0.1645,-0.1678,-0.1665,-0.1672,-0.1682,-0.169,-0.1771,-0.1797,-0.1926,-0.1942,-0.2035,-0.2108,-0.2182,-0.223,-0.2265,-0.2211,-0.2251,-0.2264,-0.2248,-0.2255,-0.2196,-0.2133,-0.2284,-0.2285,-0.2285,-0.2285,0,-0.1569,-0.1583,-0.1575,-0.1571,-0.1565,-0.158,-0.1604,-0.1633,-0.1744,-0.1828,-0.1937,-0.2019,-0.2142,-0.2244,-0.2288,-0.2282,-0.2226,-0.2259,-0.2255,-0.2309,-0.2236,-0.2163,-0.2253,-0.2289,-0.2288,-0.2288,-0.2288,-0.2288,-0.1479,-0.1451,-0.1441,-0.1436,-0.1442,-0.146,-0.1467,-0.1546,-0.1632,-0.1808,-0.1904,-0.2121,-0.2268,-0.2384,-0.2347,-0.2341,-0.2269,-0.2301,-0.2313,-0.2253,-0.2188,-0.2273,-0.23,-0.2299,-0.2299,-0.2299,-0.2299,0,-0.1334,-0.1315,-0.1298,-0.1296,-0.1292,-0.1337,-0.139,-0.1426,-0.1542,-0.1816,-0.1977,-0.2354,-0.2439,-0.2526,-0.2572,-0.2456,-0.2326,-0.2343,-0.2283,-0.2213,-0.232,-0.2326,-0.2345,-0.2345,-0.2345,-0.2345,-0.2345,-0.2345,-0.124,-0.1171,-0.1183,-0.1144,-0.1158,-0.1154,-0.1185,-0.1298,-0.1493,-0.1884,-0.2258,-0.2561,-0.2795,-0.2874,-0.2743,-0.2565,-0.2398,-0.2318,-0.2226,-0.2358,-0.2355,-0.2352,-0.2359,-0.2384,-0.2384,-0.2068,-0.2066,-0.2065]},{"header":{"parameterUnit":"m.s-1","parameterCategory":2,"la1":30.2991,"la2":30.254,"lo1":-89.0895,"lo2":-89.0444,"dy":0.0017,"dx":0.0017,"nx":28,"ny":28,"refTime":"2025-12-14T03:00:00:Z","depth":"0","parameterNumber":3,"parameterNumberName":"V-component_of_CURRENTS"},"data":[0,0,0,0,0,0,0,0,0,0,0,0,0,0,0,0,0,0,0,0,0,0,0,0,0,0,0,0,0,0,0,0,0,0,0,0,0,0,0,0,0,0,0,0,0,0,0,0,0,0,0,0,0,0,0,0,0,0,-0.0948,-0.0948,0,-0.0775,-0.0772,-0.0769,-0.0663,-0.0663,-0.0664,-0.0665,-0.0436,-0.0429,-0.0422,0,0,0,0,0,0,0,0,0,0,0,0,0,-0.0857,-0.086,-0.0948,-0.0947,-0.0947,-0.0775,-0.0772,-0.0768,-0.0663,-0.0663,-0.0664,-0.0665,-0.0438,-0.043,-0.0422,0,0,0,0,0,0,0,0,0,0,0,0,0,-0.0799,-0.0861,-0.0949,-0.0884,-0.0877,-0.0776,-0.0772,-0.0767,-0.0662,-0.0663,-0.0665,-0.0666,-0.0441,-0.0431,-0.0421,-0.0335,0,0,-0.039,-0.0385,0,0,0,0,0,0,0,0,-0.0803,-0.0801,-0.0894,-0.0888,-0.0881,-0.0754,-0.0656,-0.0625,-0.0662,-0.0729,-0.0665,-0.0666,-0.0545,-0.0527,-0.0472,-0.0325,-0.0315,-0.0389,-0.0382,-0.0378,-0.0375,0,0,0,0,0,0,0,-0.0807,-0.0806,-0.0865,-0.0893,-0.0885,-0.0751,-0.0745,-0.0647,-0.0621,-0.0723,-0.0719,-0.0721,-0.0539,-0.0482,-0.0466,-0.0311,-0.0389,-0.038,-0.0374,-0.037,-0.0189,-0.019,0,0,0,0,0,0,-0.0874,-0.0812,-0.0871,-0.0862,-0.0859,-0.0754,-0.0747,-0.0782,-0.0623,-0.0605,-0.0721,-0.0717,-0.0499,-0.0478,-0.0458,-0.0415,-0.0378,-0.0369,-0.0363,-0.0188,-0.0189,-0.0191,0,0,0,0,0,0,-0.0873,-0.0882,-0.0878,-0.0841,-0.0833,-0.0759,-0.0796,-0.0778,-0.0723,-0.0625,-0.0602,-0.0686,-0.0499,-0.0472,-0.0379,-0.0403,-0.0364,-0.0355,-0.0186,-0.0188,-0.019,-0.0286,0,0,0,0,0,0,-0.0872,-0.0883,-0.0903,-0.0848,-0.0839,-0.0817,-0.0796,-0.0775,-0.073,-0.0723,-0.0587,-0.0567,-0.0498,-0.0395,-0.0369,-0.0388,-0.0347,-0.0185,-0.0187,-0.019,-0.0281,-0.0291,-0.0299,0,0,0,0,0,-0.0869,-0.0881,-0.0906,-0.0912,-0.088,-0.0817,-0.0796,-0.0735,-0.0728,-0.0689,-0.0617,-0.0571,-0.0395,-0.0386,-0.0355,-0.0373,-0.0183,-0.0186,-0.0189,-0.0277,-0.0289,-0.0299,0,0,0,0,0,0,-0.085,-0.0872,-0.0897,-0.0919,-0.0884,-0.0805,-0.0782,-0.0736,-0.0643,-0.0642,-0.0549,-0.0522,-0.0458,-0.04,-0.0394,-0.0336,-0.0296,-0.0293,-0.0373,-0.0383,-0.0392,-0.038,-0.0338,0,0,0,0,0,-0.0869,-0.0873,-0.0882,-0.0889,-0.0908,-0.0849,-0.0813,-0.0766,-0.0696,-0.0655,-0.0566,-0.0497,-0.0443,-0.0402,-0.0326,-0.0266,-0.0219,-0.0273,-0.0282,-0.029,-0.0264,-0.0256,-0.0262,-0.0201,-0.0201,-0.0201,0,0,-0.0852,-0.0873,-0.0869,-0.0882,-0.0873,-0.0853,-0.0826,-0.0781,-0.0726,-0.0644,-0.0545,-0.0503,-0.0433,-0.0379,-0.035,-0.0334,-0.0281,-0.0294,-0.0301,-0.0269,-0.026,-0.0266,-0.0271,-0.0203,-0.0202,-0.0202,0,0,-0.0811,-0.0878,-0.0871,-0.0863,-0.086,-0.0834,-0.0833,-0.0767,-0.0719,-0.0621,-0.0587,-0.0555,-0.0426,-0.0404,-0.0377,-0.0386,-0.0326,-0.0388,-0.0417,-0.0413,-0.0417,-0.0421,-0.0359,-0.0356,-0.04,-0.04,-0.04,0,-0.0792,-0.0816,-0.0845,-0.0849,-0.0849,-0.0842,-0.0826,-0.077,-0.0652,-0.0631,-0.0603,-0.0492,-0.0438,-0.0417,-0.0436,-0.0404,-0.0374,-0.0382,-0.0424,-0.0427,-0.0429,-0.0365,-0.036,-0.0405,-0.0405,-0.0404,-0.0404,0,-0.0757,-0.0774,-0.0784,-0.0808,-0.0797,-0.0779,-0.0767,-0.0724,-0.0688,-0.0638,-0.0589,-0.052,-0.047,-0.0476,-0.0446,-0.0459,-0.0423,-0.0434,-0.0396,-0.044,-0.037,-0.0364,-0.0412,-0.041,-0.0409,-0.0408,0,0,-0.0744,-0.075,-0.0763,-0.0777,-0.0782,-0.0776,-0.0738,-0.0714,-0.0716,-0.0617,-0.0596,-0.0537,-0.0537,-0.0508,-0.0497,-0.0493,-0.0489,-0.0476,-0.0474,-0.0411,-0.0439,-0.0428,-0.0419,-0.0522,-0.0522,-0.0522,-0.0381,0,-0.0721,-0.0719,-0.0717,-0.0711,-0.0739,-0.0738,-0.0721,-0.0692,-0.0663,-0.0637,-0.0602,-0.0575,-0.0543,-0.0551,-0.054,-0.0504,-0.0478,-0.0522,-0.0405,-0.04,-0.0385,-0.0415,-0.047,-0.0352,-0.0374,-0.0373,-0.0372,0,-0.0731,-0.0727,-0.0719,-0.0727,-0.075,-0.0727,-0.0765,-0.0729,-0.0713,-0.0692,-0.0666,-0.0637,-0.0606,-0.0588,-0.0506,-0.0541,-0.0486,-0.0447,-0.0442,-0.0386,-0.0379,-0.0313,-0.0338,-0.0277,-0.0361,-0.0362,-0.0363,0,-0.0779,-0.0752,-0.0749,-0.075,-0.0747,-0.0744,-0.0746,-0.0753,-0.0746,-0.0733,-0.0728,-0.0687,-0.0653,-0.0595,-0.0501,-0.0515,-0.0401,-0.0414,-0.033,-0.0326,-0.0321,-0.0319,-0.0269,-0.0346,-0.0347,-0.0347,-0.0348,0,-0.0807,-0.081,-0.0769,-0.0783,-0.0785,-0.0789,-0.0807,-0.0801,-0.0803,-0.082,-0.0768,-0.0753,-0.0659,-0.0582,-0.0506,-0.0386,-0.0399,-0.0314,-0.0299,-0.0356,-0.0358,-0.026,-0.0205,-0.0342,-0.0343,-0.0344,-0.0345,0,-0.0869,-0.0846,-0.0834,-0.0815,-0.0811,-0.0821,-0.082,-0.0846,-0.0843,-0.0853,-0.0848,-0.0782,-0.0693,-0.0573,-0.0461,-0.0383,-0.024,-0.0238,-0.0278,-0.0272,-0.0155,-0.0103,0.0088,0.009,-0.0121,-0.012,-0.0119,0,-0.0893,-0.0895,-0.0859,-0.0851,-0.0831,-0.0837,-0.0861,-0.0864,-0.0887,-0.0876,-0.0886,-0.0792,-0.0762,-0.0554,-0.0408,-0.0247,-0.0178,-0.0178,-0.0222,-0.014,-0.0071,0.0009,0.0,-0.0235,-0.0235,-0.0236,-0.0236,0,-0.0917,-0.0903,-0.0885,-0.0876,-0.0877,-0.0893,-0.0915,-0.094,-0.0968,-0.099,-0.1003,-0.098,-0.0765,-0.0645,-0.0408,-0.0298,-0.0144,-0.0176,-0.0104,-0.0155,-0.005,-0.0047,-0.0289,-0.0237,-0.0237,-0.0237,-0.0237,-0.0237,-0.0915,-0.0902,-0.0889,-0.0882,-0.0894,-0.096,-0.1017,-0.1065,-0.1136,-0.1234,-0.1138,-0.1175,-0.0898,-0.0592,-0.0437,-0.0157,-0.0112,-0.011,-0.0045,0.0037,0.0005,-0.0209,-0.0149,-0.0148,-0.0147,-0.0147,-0.0146,0,-0.0912,-0.0909,-0.0902,-0.092,-0.0977,-0.0977,-0.107,-0.1172,-0.1305,-0.1396,-0.1439,-0.1288,-0.1016,-0.0697,-0.025,-0.0076,-0.0021,0.0021,0.0094,0.0078,-0.0134,-0.0182,-0.0114,-0.0114,-0.0114,-0.0114,-0.0114,-0.0114,-0.0903,-0.0912,-0.0919,-0.1,-0.1033,-0.1167,-0.1245,-0.1397,-0.1509,-0.1688,-0.1716,-0.1721,-0.12,-0.0337,0.0081,0.0121,0.0211,0.0261,0.0327,0.0143,0.0134,0.0126,0.0091,0.0215,0.0216,0.047,0.0472,0.0474]}],[{"header":{"parameterUnit":"m.s-1","parameterCategory":2,"la1":30.2991,"la2":30.254,"lo1":-89.0895,"lo2":-89.0444,"dy":0.0017,"dx":0.0017,"nx":28,"ny":28,"refTime":"2025-12-14T03:00:00:Z","depth":"2","parameterNumber":2,"parameterNumberName":"U-component_of_CURRENTS"},"data":[0,0,0,0,0,0,0,0,0,0,0,0,0,0,0,0,0,0,0,0,0,0,0,0,0,0,0,0,0,0,0,0,0,0,0,0,0,0,0,0,0,0,0,0,0,0,0,0,0,0,0,0,0,0,0,0,0,0,-0.2098,-0.2099,0,-0.2082,-0.2081,-0.2081,-0.2047,-0.2047,-0.2046,-0.2046,-0.2049,-0.2049,-0.2049,0,0,0,0,0,0,0,0,0,0,0,0,0,-0.2044,-0.2045,-0.2098,-0.2099,-0.2099,-0.2082,-0.2081,-0.2081,-0.2047,-0.2047,-0.2046,-0.2046,-0.2049,-0.2049,-0.2049,0,0,0,0,0,0,0,0,0,0,0,0,0,-0.2049,-0.2046,-0.2098,-0.2082,-0.2081,-0.2082,-0.2081,-0.208,-0.2047,-0.2047,-0.2046,-0.2046,-0.2048,-0.2049,-0.205,-0.2064,0,0,-0.2051,-0.2052,0,0,0,0,0,0,0,0,-0.2048,-0.205,-0.2085,-0.2083,-0.2082,-0.2069,-0.2063,-0.2077,-0.2047,-0.2057,-0.2046,-0.2045,-0.206,-0.2059,-0.2052,-0.2064,-0.2064,-0.2051,-0.2052,-0.2052,-0.2052,0,0,0,0,0,0,0,-0.2048,-0.205,-0.2088,-0.2085,-0.2083,-0.2057,-0.2057,-0.2065,-0.2059,-0.2056,-0.2054,-0.2058,-0.2059,-0.2052,-0.2052,-0.2064,-0.2051,-0.2052,-0.2052,-0.2053,-0.2092,-0.2092,0,0,0,0,0,0,-0.2061,-0.2051,-0.2089,-0.2088,-0.2067,-0.2059,-0.2058,-0.2071,-0.2059,-0.2057,-0.2058,-0.2056,-0.2051,-0.2052,-0.2052,-0.2055,-0.2052,-0.2053,-0.2053,-0.2091,-0.2092,-0.2092,0,0,0,0,0,0,-0.206,-0.2065,-0.209,-0.2071,-0.2073,-0.2061,-0.2074,-0.2071,-0.2073,-0.2061,-0.2059,-0.2065,-0.2051,-0.2052,-0.2047,-0.2055,-0.2053,-0.2053,-0.209,-0.2091,-0.2092,-0.2069,0,0,0,0,0,0,-0.2059,-0.2065,-0.2064,-0.2072,-0.2074,-0.2087,-0.2075,-0.2071,-0.2077,-0.2074,-0.2066,-0.2065,-0.205,-0.2046,-0.2048,-0.2056,-0.2054,-0.2089,-0.2091,-0.2092,-0.2069,-0.2069,-0.2069,0,0,0,0,0,-0.2057,-0.2068,-0.2064,-0.2068,-0.2079,-0.2087,-0.2085,-0.2072,-0.2078,-0.2073,-0.2062,-0.2066,-0.2056,-0.2047,-0.2048,-0.2057,-0.2089,-0.209,-0.2092,-0.2069,-0.2069,-0.2069,0,0,0,0,0,0,-0.2052,-0.2066,-0.2062,-0.2079,-0.208,-0.2083,-0.2086,-0.2084,-0.2073,-0.2076,-0.2064,-0.2062,-0.2064,-0.207,-0.206,-0.2075,-0.2078,-0.208,-0.2061,-0.2061,-0.2061,-0.2071,-0.2054,0,0,0,0,0,-0.205,-0.205,-0.2068,-0.2073,-0.209,-0.2092,-0.2093,-0.2088,-0.2087,-0.2082,-0.2065,-0.2066,-0.2073,-0.2072,-0.2071,-0.2078,-0.2089,-0.2091,-0.2091,-0.2091,-0.2102,-0.2123,-0.2125,-0.2097,-0.2097,-0.2097,0,0,-0.2043,-0.2054,-0.205,-0.2069,-0.2079,-0.2081,-0.2091,-0.2104,-0.2089,-0.2087,-0.2058,-0.2064,-0.2076,-0.2071,-0.2075,-0.2075,-0.21,-0.2093,-0.2092,-0.2104,-0.2124,-0.2127,-0.2129,-0.2098,-0.2098,-0.2098,0,0,-0.2029,-0.2056,-0.2049,-0.2058,-0.2076,-0.2081,-0.2091,-0.2095,-0.2087,-0.2064,-0.2069,-0.2082,-0.2064,-0.2078,-0.2086,-0.2098,-0.2101,-0.2101,-0.2106,-0.2125,-0.2127,-0.2129,-0.2125,-0.2127,-0.2099,-0.2099,-0.2099,0,-0.2015,-0.2016,-0.2046,-0.205,-0.2054,-0.2085,-0.2082,-0.2084,-0.2067,-0.207,-0.205,-0.2063,-0.2071,-0.2101,-0.2097,-0.2099,-0.2098,-0.2097,-0.2123,-0.2126,-0.2129,-0.2124,-0.2126,-0.2098,-0.2099,-0.2099,-0.2099,0,-0.1993,-0.1995,-0.2008,-0.2012,-0.2022,-0.2032,-0.2051,-0.2049,-0.2045,-0.2043,-0.2057,-0.206,-0.2074,-0.2083,-0.2087,-0.2123,-0.2111,-0.2119,-0.2118,-0.213,-0.2124,-0.2127,-0.2097,-0.2098,-0.2098,-0.2098,0,0,-0.1945,-0.198,-0.1978,-0.1976,-0.2006,-0.2013,-0.2017,-0.203,-0.2044,-0.2028,-0.2033,-0.2057,-0.2079,-0.2094,-0.2115,-0.2134,-0.2145,-0.213,-0.2132,-0.2117,-0.2163,-0.2161,-0.2164,-0.2147,-0.2148,-0.2149,-0.2143,0,-0.1909,-0.1907,-0.193,-0.1917,-0.1926,-0.1964,-0.1968,-0.1987,-0.1999,-0.2008,-0.2051,-0.2066,-0.208,-0.2093,-0.2116,-0.215,-0.2155,-0.2144,-0.2163,-0.2164,-0.2154,-0.2169,-0.1981,-0.1961,-0.2146,-0.2147,-0.2147,0,-0.1863,-0.187,-0.1862,-0.1884,-0.1896,-0.1889,-0.1923,-0.1932,-0.1984,-0.1995,-0.2032,-0.2063,-0.2115,-0.211,-0.2167,-0.2155,-0.2156,-0.217,-0.217,-0.2184,-0.2169,-0.1986,-0.196,-0.2152,-0.2152,-0.2151,-0.2151,0,-0.1804,-0.1813,-0.1805,-0.1812,-0.1851,-0.185,-0.1871,-0.1923,-0.1946,-0.1996,-0.2017,-0.2075,-0.2105,-0.2132,-0.2167,-0.2165,-0.2206,-0.2207,-0.2201,-0.2199,-0.2055,-0.204,-0.2227,-0.2227,-0.2227,-0.2227,-0.2227,0,-0.1752,-0.174,-0.1776,-0.1774,-0.177,-0.1813,-0.1825,-0.1861,-0.1917,-0.1956,-0.2015,-0.205,-0.2112,-0.2146,-0.2163,-0.2196,-0.2203,-0.221,-0.2208,-0.204,-0.2025,-0.2211,-0.2209,-0.2226,-0.2226,-0.2227,-0.2227,0,-0.1682,-0.171,-0.1703,-0.1737,-0.1744,-0.1743,-0.1789,-0.1801,-0.1876,-0.1923,-0.1942,-0.2035,-0.2101,-0.2144,-0.219,-0.2197,-0.2222,-0.2217,-0.2011,-0.1987,-0.2199,-0.2196,-0.2227,-0.2227,-0.2227,-0.2227,-0.2227,0,-0.1648,-0.1635,-0.1667,-0.1654,-0.1661,-0.1672,-0.168,-0.1761,-0.1786,-0.1915,-0.1931,-0.2023,-0.2087,-0.216,-0.2155,-0.2174,-0.2222,-0.2023,-0.2009,-0.2209,-0.2203,-0.22,-0.2198,-0.1785,-0.1781,-0.1778,-0.1776,0,-0.1557,-0.1572,-0.1563,-0.1559,-0.1553,-0.1568,-0.1592,-0.162,-0.1732,-0.1806,-0.1915,-0.1987,-0.2061,-0.2028,-0.2051,-0.2029,-0.2015,-0.197,-0.2215,-0.1839,-0.1799,-0.1792,-0.1802,-0.175,-0.1753,-0.1755,-0.1756,-0.1757,-0.1466,-0.1438,-0.1429,-0.1423,-0.143,-0.1447,-0.1454,-0.15,-0.1573,-0.1678,-0.181,-0.189,-0.1904,-0.1894,-0.1826,-0.1771,-0.1917,-0.1841,-0.1846,-0.1855,-0.183,-0.1796,-0.1738,-0.1741,-0.1743,-0.1745,-0.1746,0,-0.1309,-0.1302,-0.1285,-0.1283,-0.1266,-0.1325,-0.1376,-0.1367,-0.143,-0.1563,-0.166,-0.1587,-0.1594,-0.1626,-0.1513,-0.1515,-0.1444,-0.1456,-0.1353,-0.1381,-0.1405,-0.1353,-0.1137,-0.1135,-0.1134,-0.1132,0,0,-0.1211,-0.1136,-0.1149,-0.1104,-0.1129,-0.1102,-0.1131,-0.1157,-0.1229,-0.129,-0.1377,-0.1531,-0.1616,-0.1382,-0.1316,-0.1226,-0.1285,-0.1162,-0.165,-0.1558,-0.158,-0.1628,-0.1581,0,0,0,0,0]},{"header":{"parameterUnit":"m.s-1","parameterCategory":2,"la1":30.2991,"la2":30.254,"lo1":-89.0895,"lo2":-89.0444,"dy":0.0017,"dx":0.0017,"nx":28,"ny":28,"refTime":"2025-12-14T03:00:00:Z","depth":"2","parameterNumber":3,"parameterNumberName":"V-component_of_CURRENTS"},"data":[0,0,0,0,0,0,0,0,0,0,0,0,0,0,0,0,0,0,0,0,0,0,0,0,0,0,0,0,0,0,0,0,0,0,0,0,0,0,0,0,0,0,0,0,0,0,0,0,0,0,0,0,0,0,0,0,0,0,-0.0601,-0.0602,0,-0.0609,-0.0608,-0.0607,-0.0523,-0.0522,-0.0521,-0.052,-0.0298,-0.0293,-0.0288,0,0,0,0,0,0,0,0,0,0,0,0,0,-0.0591,-0.059,-0.0601,-0.0602,-0.0604,-0.0609,-0.0608,-0.0606,-0.0523,-0.0522,-0.052,-0.0519,-0.03,-0.0294,-0.0288,0,0,0,0,0,0,0,0,0,0,0,0,0,-0.0583,-0.059,-0.06,-0.0573,-0.0572,-0.0609,-0.0608,-0.0606,-0.0523,-0.0522,-0.052,-0.0519,-0.0302,-0.0294,-0.0287,-0.027,0,0,-0.0264,-0.0261,0,0,0,0,0,0,0,0,-0.0583,-0.0581,-0.0576,-0.0575,-0.0574,-0.0576,-0.0524,-0.0487,-0.0523,-0.0526,-0.052,-0.0518,-0.038,-0.0367,-0.0354,-0.026,-0.025,-0.0264,-0.0259,-0.0256,-0.0254,0,0,0,0,0,0,0,-0.0584,-0.0581,-0.0589,-0.0578,-0.0577,-0.0589,-0.0584,-0.0517,-0.0446,-0.0526,-0.0523,-0.0548,-0.0376,-0.0361,-0.0347,-0.0247,-0.0264,-0.0257,-0.0252,-0.025,-0.013,-0.0132,0,0,0,0,0,0,-0.061,-0.0581,-0.0589,-0.0591,-0.0592,-0.0591,-0.0584,-0.0565,-0.0451,-0.0439,-0.0549,-0.0545,-0.0375,-0.0356,-0.0339,-0.0299,-0.0256,-0.0249,-0.0244,-0.0129,-0.0131,-0.0132,0,0,0,0,0,0,-0.0608,-0.0608,-0.0589,-0.0601,-0.0601,-0.0594,-0.0572,-0.0566,-0.0559,-0.0475,-0.0454,-0.0552,-0.0373,-0.0349,-0.0265,-0.0289,-0.0245,-0.0239,-0.0128,-0.013,-0.0131,-0.0225,0,0,0,0,0,0,-0.0607,-0.0606,-0.0597,-0.0601,-0.0602,-0.0608,-0.0575,-0.0568,-0.0584,-0.0577,-0.047,-0.0447,-0.037,-0.0276,-0.0257,-0.0278,-0.0233,-0.0126,-0.0128,-0.0131,-0.0221,-0.023,-0.0239,0,0,0,0,0,-0.0606,-0.0634,-0.0594,-0.0597,-0.0587,-0.061,-0.0609,-0.0591,-0.0586,-0.0578,-0.0499,-0.0451,-0.028,-0.027,-0.0248,-0.0267,-0.0125,-0.0128,-0.0131,-0.0217,-0.0228,-0.0238,0,0,0,0,0,0,-0.0656,-0.0629,-0.0586,-0.0607,-0.0597,-0.0601,-0.0648,-0.0609,-0.0548,-0.054,-0.0442,-0.0414,-0.0352,-0.0303,-0.0295,-0.0246,-0.0206,-0.0204,-0.0279,-0.0289,-0.0298,-0.0284,-0.0227,0,0,0,0,0,-0.0655,-0.0632,-0.0625,-0.0632,-0.0667,-0.065,-0.0662,-0.0624,-0.0588,-0.0563,-0.0474,-0.0404,-0.0351,-0.0313,-0.024,-0.0205,-0.0159,-0.0214,-0.0223,-0.0231,-0.0207,-0.02,-0.0206,-0.0142,-0.0142,-0.0142,0,0,-0.0668,-0.0662,-0.0642,-0.0636,-0.0661,-0.066,-0.0652,-0.0681,-0.0625,-0.0546,-0.046,-0.0416,-0.0346,-0.0296,-0.027,-0.0255,-0.0223,-0.0234,-0.0241,-0.0212,-0.0204,-0.021,-0.0215,-0.0144,-0.0144,-0.0143,0,0,-0.0692,-0.0707,-0.0688,-0.0691,-0.071,-0.0701,-0.0712,-0.069,-0.0648,-0.0559,-0.0509,-0.0475,-0.0364,-0.0329,-0.0302,-0.0323,-0.0265,-0.0326,-0.0359,-0.0355,-0.036,-0.0364,-0.0302,-0.0299,-0.034,-0.034,-0.034,0,-0.069,-0.0671,-0.0694,-0.0697,-0.0716,-0.0723,-0.0716,-0.0683,-0.0592,-0.057,-0.0533,-0.043,-0.0377,-0.0354,-0.0364,-0.0341,-0.0312,-0.0324,-0.0367,-0.0369,-0.0371,-0.0307,-0.0303,-0.0345,-0.0344,-0.0344,-0.0343,0,-0.069,-0.0675,-0.072,-0.0682,-0.07,-0.0724,-0.0701,-0.0669,-0.0634,-0.0581,-0.0531,-0.0462,-0.0413,-0.0417,-0.0386,-0.0401,-0.0363,-0.0374,-0.0339,-0.0383,-0.0312,-0.0306,-0.0352,-0.035,-0.0348,-0.0347,0,0,-0.0682,-0.0686,-0.0702,-0.0688,-0.0696,-0.0721,-0.0683,-0.0661,-0.0662,-0.0563,-0.0542,-0.0482,-0.0482,-0.0453,-0.044,-0.0438,-0.0434,-0.0421,-0.0418,-0.0355,-0.0386,-0.0376,-0.0367,-0.0467,-0.0467,-0.0467,-0.0325,0,-0.0665,-0.066,-0.0654,-0.0654,-0.0685,-0.0684,-0.0667,-0.0638,-0.061,-0.0585,-0.0549,-0.0521,-0.0489,-0.0497,-0.0488,-0.0449,-0.0425,-0.0468,-0.0352,-0.0346,-0.0332,-0.0363,-0.0307,-0.0179,-0.0319,-0.0318,-0.0317,0,-0.0679,-0.0672,-0.0664,-0.0671,-0.0695,-0.0674,-0.0715,-0.0678,-0.0663,-0.0641,-0.0616,-0.0586,-0.0556,-0.0539,-0.0457,-0.0491,-0.0436,-0.0396,-0.0391,-0.0337,-0.0326,-0.0159,-0.0162,-0.0306,-0.0307,-0.0308,-0.0308,0,-0.0731,-0.0703,-0.0699,-0.07,-0.0696,-0.0692,-0.0696,-0.0703,-0.0696,-0.0684,-0.0678,-0.0638,-0.0604,-0.0547,-0.0453,-0.0466,-0.0353,-0.0364,-0.0282,-0.0277,-0.0179,-0.0168,-0.0299,-0.0299,-0.03,-0.03,-0.0301,0,-0.0762,-0.0766,-0.0721,-0.0734,-0.0738,-0.074,-0.0759,-0.0754,-0.0755,-0.0772,-0.072,-0.0706,-0.0612,-0.0535,-0.0459,-0.0339,-0.0353,-0.0267,-0.0251,-0.021,-0.0204,-0.0278,-0.0277,-0.0295,-0.0296,-0.0297,-0.0298,0,-0.0826,-0.0801,-0.0788,-0.0768,-0.0763,-0.0774,-0.0772,-0.0799,-0.0796,-0.0805,-0.08,-0.0735,-0.0645,-0.0525,-0.0414,-0.0336,-0.024,-0.0193,-0.012,-0.0101,-0.0152,-0.0158,-0.0078,-0.0077,-0.0076,-0.0075,-0.0074,0,-0.0848,-0.0851,-0.0814,-0.0806,-0.0785,-0.0791,-0.0814,-0.0817,-0.0839,-0.0829,-0.0837,-0.0744,-0.0706,-0.0498,-0.0316,-0.0144,-0.0191,-0.0018,-0.0047,-0.0142,-0.0135,-0.0142,-0.015,0.0071,0.0073,0.0075,0.0076,0,-0.0871,-0.0858,-0.084,-0.083,-0.0831,-0.0846,-0.0868,-0.0892,-0.0919,-0.093,-0.0943,-0.0911,-0.0666,-0.0454,-0.0204,-0.0104,-0.0049,0.0016,-0.01,-0.0022,0.0001,0.0007,-0.0004,0.009,0.0089,0.0088,0.0087,0.0086,-0.0869,-0.0856,-0.0843,-0.0836,-0.0848,-0.0913,-0.0969,-0.0968,-0.1021,-0.1033,-0.0997,-0.0922,-0.0668,-0.031,-0.0098,0.0113,0.0068,0.0113,0.0108,0.0101,0.0064,0.0084,0.0187,0.0186,0.0186,0.0185,0.0184,0,-0.0833,-0.0862,-0.0855,-0.0873,-0.0895,-0.0931,-0.1022,-0.1043,-0.1096,-0.1072,-0.1045,-0.0803,-0.0519,-0.0279,0.0092,0.0272,0.0284,0.0282,0.0278,0.0265,0.0252,0.0221,0.0387,0.0388,0.0389,0.0389,0,0,-0.0814,-0.0809,-0.0816,-0.0882,-0.0943,-0.102,-0.1096,-0.1117,-0.1103,-0.1086,-0.1035,-0.0858,-0.057,-0.0271,0.0016,0.0203,0.0167,0.0222,0.0047,-0.0002,-0.0017,0.0155,0.0091,0,0,0,0,0]}],[{"header":{"parameterUnit":"m.s-1","parameterCategory":2,"la1":30.2991,"la2":30.254,"lo1":-89.0895,"lo2":-89.0444,"dy":0.0017,"dx":0.0017,"nx":28,"ny":28,"refTime":"2025-12-14T03:00:00:Z","depth":"4","parameterNumber":2,"parameterNumberName":"U-component_of_CURRENTS"},"data":[0,0,0,0,0,0,0,0,0,0,0,0,0,0,0,0,0,0,0,0,0,0,0,0,0,0,0,0,0,0,0,0,0,0,0,0,0,0,0,0,0,0,0,0,0,0,0,0,0,0,0,0,0,0,0,0,0,0,-0.0766,-0.0767,0,-0.0837,-0.0837,-0.0838,-0.0817,-0.0816,-0.0814,-0.0813,-0.1027,-0.1033,-0.104,0,0,0,0,0,0,0,0,0,0,0,0,0,-0.0692,-0.0693,-0.0766,-0.0767,-0.0768,-0.0836,-0.0837,-0.0838,-0.0817,-0.0816,-0.0814,-0.0813,-0.1024,-0.1032,-0.1041,0,0,0,0,0,0,0,0,0,0,0,0,0,-0.0737,-0.0693,-0.0765,-0.0768,-0.0769,-0.0836,-0.0837,-0.0838,-0.0817,-0.0816,-0.0814,-0.0812,-0.1022,-0.1032,-0.1042,-0.1141,0,0,-0.1073,-0.1077,0,0,0,0,0,0,0,0,-0.0734,-0.0739,-0.0766,-0.0768,-0.0769,-0.0818,-0.089,-0.0947,-0.0818,-0.0796,-0.0813,-0.0811,-0.0974,-0.0988,-0.0999,-0.1151,-0.116,-0.1074,-0.108,-0.1084,-0.1087,0,0,0,0,0,0,0,-0.0731,-0.0737,-0.0791,-0.0768,-0.077,-0.0793,-0.0796,-0.09,-0.0895,-0.0798,-0.0797,-0.081,-0.0975,-0.0989,-0.1004,-0.1163,-0.1074,-0.1083,-0.1089,-0.1093,-0.1414,-0.1416,0,0,0,0,0,0,-0.0726,-0.0733,-0.0789,-0.0793,-0.075,-0.0796,-0.0799,-0.0802,-0.089,-0.0902,-0.0812,-0.0809,-0.0972,-0.0992,-0.1012,-0.1232,-0.1084,-0.1094,-0.11,-0.1412,-0.1414,-0.1417,0,0,0,0,0,0,-0.0724,-0.073,-0.0786,-0.0768,-0.0777,-0.0799,-0.0802,-0.0805,-0.0887,-0.09,-0.0913,-0.0899,-0.0972,-0.0998,-0.1106,-0.1236,-0.1098,-0.1108,-0.1409,-0.1412,-0.1416,-0.1611,0,0,0,0,0,0,-0.0721,-0.0728,-0.0741,-0.0767,-0.0778,-0.0824,-0.0805,-0.0807,-0.0895,-0.0894,-0.098,-0.0992,-0.0972,-0.109,-0.1116,-0.1248,-0.1116,-0.1406,-0.141,-0.1415,-0.1602,-0.1621,-0.1638,0,0,0,0,0,-0.0718,-0.0772,-0.0741,-0.0749,-0.0789,-0.0825,-0.0833,-0.0841,-0.0902,-0.0918,-0.0974,-0.0993,-0.1137,-0.1101,-0.1131,-0.1269,-0.1403,-0.1409,-0.1414,-0.1594,-0.1617,-0.1637,0,0,0,0,0,0,-0.0754,-0.0775,-0.0742,-0.0796,-0.0795,-0.0823,-0.0882,-0.0908,-0.0973,-0.0996,-0.1037,-0.1052,-0.1191,-0.1195,-0.1155,-0.1361,-0.1273,-0.1284,-0.1399,-0.1422,-0.1439,-0.1356,-0.1124,0,0,0,0,0,-0.0761,-0.0801,-0.0796,-0.0835,-0.0862,-0.0894,-0.093,-0.0917,-0.0973,-0.1004,-0.1101,-0.1172,-0.1231,-0.1295,-0.1335,-0.1484,-0.141,-0.158,-0.1598,-0.1614,-0.156,-0.1526,-0.1536,-0.1435,-0.1435,-0.1435,0,0,-0.0787,-0.0805,-0.0825,-0.0845,-0.0877,-0.0928,-0.0914,-0.0974,-0.1022,-0.1026,-0.1206,-0.1256,-0.1276,-0.1395,-0.1463,-0.1428,-0.1619,-0.1621,-0.1635,-0.157,-0.1533,-0.1542,-0.1551,-0.1439,-0.1438,-0.1437,0,0,-0.0852,-0.0883,-0.0923,-0.0944,-0.0971,-0.0995,-0.1039,-0.1114,-0.1151,-0.1277,-0.1291,-0.1388,-0.1558,-0.1557,-0.1582,-0.1732,-0.1705,-0.1805,-0.1862,-0.1835,-0.1842,-0.1847,-0.1827,-0.1828,-0.1828,-0.1828,-0.1829,0,-0.0841,-0.0906,-0.0939,-0.0985,-0.1012,-0.1056,-0.1092,-0.1158,-0.126,-0.1301,-0.1344,-0.1545,-0.1607,-0.1686,-0.1734,-0.1779,-0.175,-0.1795,-0.1858,-0.186,-0.1862,-0.1839,-0.1838,-0.1838,-0.1837,-0.1836,-0.1835,0,-0.0952,-0.0977,-0.1037,-0.1095,-0.113,-0.1181,-0.1236,-0.1342,-0.145,-0.1484,-0.1618,-0.1677,-0.1767,-0.1852,-0.1856,-0.1933,-0.1908,-0.1879,-0.1803,-0.1884,-0.1856,-0.1851,-0.1853,-0.1849,-0.1846,-0.1844,0,0,-0.0941,-0.1063,-0.1072,-0.1086,-0.1176,-0.1211,-0.1342,-0.1412,-0.1493,-0.1632,-0.1714,-0.1862,-0.1897,-0.1917,-0.1964,-0.1971,-0.2026,-0.1958,-0.1952,-0.1936,-0.1979,-0.191,-0.1898,-0.2027,-0.2026,-0.2025,-0.1977,0,-0.0974,-0.1041,-0.1111,-0.1194,-0.1232,-0.1312,-0.1415,-0.1487,-0.1579,-0.1697,-0.1756,-0.185,-0.1921,-0.1975,-0.2007,-0.1997,-0.2012,-0.204,-0.1898,-0.1892,-0.182,-0.1888,-0.2021,-0.1973,-0.1972,-0.1971,-0.197,0,-0.1026,-0.1065,-0.1115,-0.1191,-0.1223,-0.1303,-0.1432,-0.1507,-0.1639,-0.17,-0.1796,-0.185,-0.1927,-0.1949,-0.1971,-0.1996,-0.1998,-0.1984,-0.1982,-0.1818,-0.1811,-0.1856,-0.196,-0.196,-0.1961,-0.1962,-0.1962,0,-0.0966,-0.1055,-0.1087,-0.1124,-0.1247,-0.1311,-0.1395,-0.1516,-0.1563,-0.1682,-0.173,-0.1819,-0.1864,-0.1874,-0.1934,-0.1948,-0.191,-0.1913,-0.1841,-0.1837,-0.1825,-0.1818,-0.188,-0.188,-0.188,-0.188,-0.188,0,-0.0947,-0.0981,-0.1077,-0.1113,-0.1184,-0.1266,-0.1348,-0.1453,-0.1543,-0.1592,-0.1716,-0.1757,-0.1845,-0.1875,-0.1901,-0.1867,-0.1892,-0.1824,-0.1809,-0.192,-0.1924,-0.1825,-0.1819,-0.1878,-0.1879,-0.1879,-0.1879,0,-0.0875,-0.093,-0.0988,-0.1114,-0.1154,-0.1207,-0.1321,-0.1369,-0.1469,-0.1529,-0.1566,-0.17,-0.1748,-0.1815,-0.1821,-0.1808,-0.1778,-0.1758,-0.1882,-0.1878,-0.1729,-0.1734,-0.1638,-0.1635,-0.1632,-0.163,-0.1628,0,-0.0838,-0.0863,-0.0977,-0.1002,-0.1072,-0.1154,-0.1202,-0.1323,-0.136,-0.1493,-0.1508,-0.1599,-0.1689,-0.1635,-0.1717,-0.1721,-0.1722,-0.1684,-0.1695,-0.1703,-0.1699,-0.1708,-0.1717,-0.1624,-0.1624,-0.1623,-0.1622,0,-0.0787,-0.0841,-0.0885,-0.0933,-0.099,-0.1045,-0.1128,-0.1143,-0.1277,-0.1368,-0.1425,-0.1477,-0.1526,-0.1577,-0.1597,-0.1607,-0.169,-0.1657,-0.1662,-0.1671,-0.1686,-0.1686,-0.1697,-0.1613,-0.1614,-0.1615,-0.1616,0,-0.0746,-0.0753,-0.0803,-0.0849,-0.0902,-0.0933,-0.0993,-0.1053,-0.1108,-0.1268,-0.1283,-0.1402,-0.1505,-0.1518,-0.1539,-0.1543,-0.1527,-0.1476,-0.149,-0.1501,-0.1487,-0.1487,-0.1318,0,0,0,0,0,-0.0682,-0.0675,-0.0711,-0.0752,-0.081,-0.0847,-0.0938,-0.1,-0.1129,-0.1133,-0.1209,-0.1268,-0.1328,-0.139,-0.1369,-0.1479,-0.1525,-0.1447,-0.1471,-0.1563,-0.1573,-0.1575,0,0,0,0,0,0,-0.0631,-0.064,-0.0667,-0.0666,-0.0685,-0.0738,-0.0794,-0.0884,-0.0903,-0.1041,-0.1082,-0.1185,-0.126,-0.1321,-0.1341,-0.1359,-0.1348,-0.1524,-0.152,-0.1557,-0.1566,-0.1575,-0.158,0,0,0,0,0]},{"header":{"parameterUnit":"m.s-1","parameterCategory":2,"la1":30.2991,"la2":30.254,"lo1":-89.0895,"lo2":-89.0444,"dy":0.0017,"dx":0.0017,"nx":28,"ny":28,"refTime":"2025-12-14T03:00:00:Z","depth":"4","parameterNumber":3,"parameterNumberName":"V-component_of_CURRENTS"},"data":[0,0,0,0,0,0,0,0,0,0,0,0,0,0,0,0,0,0,0,0,0,0,0,0,0,0,0,0,0,0,0,0,0,0,0,0,0,0,0,0,0,0,0,0,0,0,0,0,0,0,0,0,0,0,0,0,0,0,0.0634,0.0636,0,0.07,0.07,0.0699,0.0688,0.0688,0.0688,0.0688,0.0765,0.0767,0.0769,0,0,0,0,0,0,0,0,0,0,0,0,0,0.0564,0.0564,0.0634,0.0636,0.0638,0.07,0.07,0.0699,0.0688,0.0688,0.0688,0.0688,0.0764,0.0767,0.0769,0,0,0,0,0,0,0,0,0,0,0,0,0,0.0597,0.0564,0.0634,0.0648,0.0651,0.07,0.07,0.0699,0.0688,0.0688,0.0688,0.0688,0.0764,0.0767,0.077,0.0792,0,0,0.078,0.0781,0,0,0,0,0,0,0,0,0.0595,0.0598,0.0644,0.0647,0.0651,0.0696,0.0704,0.0735,0.0688,0.0662,0.0688,0.0688,0.0751,0.0755,0.0751,0.0796,0.0799,0.078,0.0782,0.0783,0.0784,0,0,0,0,0,0,0,0.0593,0.0596,0.0648,0.0646,0.0651,0.0675,0.0677,0.0709,0.0697,0.0664,0.0666,0.0692,0.0751,0.0748,0.0753,0.08,0.078,0.0783,0.0785,0.0786,0.0809,0.0808,0,0,0,0,0,0,0.0605,0.0593,0.0646,0.0651,0.0635,0.0677,0.0679,0.0672,0.0697,0.0704,0.0692,0.0692,0.0742,0.0749,0.0756,0.0776,0.0783,0.0786,0.0788,0.081,0.0809,0.0807,0,0,0,0,0,0,0.0603,0.0608,0.0644,0.0635,0.0643,0.0679,0.067,0.0674,0.0749,0.072,0.0725,0.0775,0.0742,0.0751,0.0791,0.078,0.0788,0.079,0.0812,0.081,0.0808,0.0823,0,0,0,0,0,0,0.0599,0.0605,0.0619,0.0635,0.0645,0.0664,0.0672,0.0675,0.0766,0.0767,0.0792,0.0794,0.0743,0.0786,0.0794,0.0784,0.0793,0.0813,0.0811,0.0809,0.0825,0.0822,0.082,0,0,0,0,0,0.0596,0.0612,0.0618,0.0627,0.0655,0.0666,0.067,0.0689,0.0772,0.0768,0.0795,0.0797,0.0774,0.079,0.0799,0.0789,0.0815,0.0812,0.0809,0.0825,0.0823,0.082,0,0,0,0,0,0,0.0601,0.0614,0.062,0.0642,0.0652,0.0668,0.0712,0.0755,0.0782,0.0806,0.0814,0.0814,0.0827,0.0821,0.0838,0.078,0.0784,0.0782,0.0793,0.079,0.0788,0.0758,0.0796,0,0,0,0,0,0.0608,0.0587,0.0628,0.0626,0.0678,0.0725,0.0757,0.0753,0.0783,0.0801,0.0834,0.0839,0.0811,0.0819,0.079,0.0807,0.0783,0.0793,0.0791,0.0789,0.0766,0.0731,0.0725,0.0798,0.0798,0.0798,0,0,0.0613,0.0608,0.0606,0.0622,0.0667,0.0697,0.0741,0.0785,0.0767,0.0807,0.0847,0.0856,0.0816,0.0779,0.0785,0.0786,0.0756,0.0785,0.0785,0.0762,0.0728,0.0721,0.0715,0.0796,0.0796,0.0796,0,0,0.0573,0.0629,0.0607,0.0648,0.0694,0.0706,0.0753,0.0814,0.0811,0.0818,0.0835,0.0852,0.0845,0.0793,0.0767,0.0757,0.075,0.0758,0.0728,0.0696,0.069,0.0684,0.0652,0.0643,0.0753,0.0753,0.0753,0,0.0561,0.0547,0.0604,0.0626,0.0659,0.074,0.0751,0.076,0.0798,0.0789,0.0811,0.0808,0.0819,0.0761,0.0736,0.0753,0.0736,0.0749,0.0695,0.0689,0.0683,0.0651,0.0641,0.0753,0.0753,0.0753,0.0753,0,0.0529,0.0542,0.0569,0.0589,0.0628,0.065,0.0697,0.0707,0.0745,0.0749,0.0728,0.0724,0.0704,0.0719,0.0724,0.0689,0.0692,0.0705,0.0708,0.0677,0.0644,0.0634,0.0754,0.0754,0.0754,0.0754,0,0,0.0408,0.0501,0.0507,0.0521,0.0612,0.0623,0.0617,0.0601,0.0596,0.0618,0.0581,0.0576,0.0627,0.06,0.0632,0.0626,0.0599,0.0656,0.0655,0.0635,0.0528,0.056,0.0552,0.0614,0.0613,0.0611,0.0526,0,0.0342,0.0344,0.0396,0.041,0.0465,0.0518,0.0493,0.0495,0.0496,0.0488,0.0493,0.0481,0.0563,0.0554,0.0566,0.0589,0.0571,0.062,0.055,0.0547,0.0589,0.054,0.0605,0.0518,0.0516,0.0514,0.0513,0,0.0306,0.0301,0.0303,0.032,0.0349,0.034,0.0322,0.03,0.0308,0.0302,0.0318,0.0359,0.0367,0.0426,0.0435,0.0468,0.0489,0.0512,0.0509,0.052,0.0559,0.0551,0.0494,0.0495,0.0497,0.0498,0.0499,0,0.0226,0.0237,0.021,0.0248,0.0291,0.0241,0.0229,0.0246,0.0212,0.0203,0.0186,0.0219,0.0208,0.0245,0.0337,0.0371,0.034,0.0379,0.0414,0.0416,0.041,0.0416,0.0345,0.0345,0.0345,0.0346,0.0346,0,0.0171,0.0153,0.0167,0.0185,0.0115,0.0174,0.0093,0.0084,0.0063,0.004,0.0105,0.0075,0.0166,0.0188,0.0268,0.0315,0.0276,0.0384,0.0388,0.0419,0.0427,0.0403,0.0411,0.0342,0.0343,0.0344,0.0344,0,0.0125,0.0144,0.0127,0.0118,0.0102,0.0065,0.0013,-0.0036,-0.0043,-0.0092,-0.0102,-0.0056,-0.0016,0.0079,0.0128,0.021,0.0256,0.0276,0.0288,0.0299,0.0365,0.0374,0.0278,0.0278,0.0278,0.0278,0.0278,0,0.0109,0.0098,0.008,0.0062,0.0049,-0.0009,-0.0055,-0.0085,-0.0125,-0.0163,-0.0194,-0.0174,-0.0123,-0.005,0.0074,0.0184,0.0226,0.0233,0.0317,0.0339,0.0353,0.0362,0.0371,0.0279,0.0279,0.0279,0.0279,0,0.0071,0.0059,0.0046,0.0013,-0.0034,-0.0102,-0.0173,-0.0222,-0.0256,-0.0265,-0.0292,-0.0232,-0.0187,-0.0068,0.0022,0.0116,0.0225,0.0236,0.0237,0.0316,0.034,0.0355,0.0364,0.028,0.0279,0.0279,0.0279,0,0.0042,0.0018,0.001,-0.0028,-0.0091,-0.0173,-0.0219,-0.0281,-0.0325,-0.0357,-0.0368,-0.0298,-0.0253,-0.0107,-0.0021,0.0077,0.0118,0.0159,0.0165,0.0165,0.0196,0.0214,0.009,0,0,0,0,0,0.0042,0.0017,-0.0031,-0.007,-0.0147,-0.0184,-0.0276,-0.0314,-0.0358,-0.0387,-0.038,-0.033,-0.0199,-0.0139,-0.0041,0.0006,0.0148,0.0128,0.0201,0.0283,0.0283,0.0345,0,0,0,0,0,0,0.0048,0.0013,-0.002,-0.0101,-0.0149,-0.0241,-0.0306,-0.0345,-0.0363,-0.0385,-0.0319,-0.0286,-0.0156,-0.0249,-0.003,0.0001,0.0064,0.0193,0.0195,0.0284,0.0283,0.0282,0.0346,0,0,0,0,0]}]]